Year,Month,Day,Hour,Minute,Value (Times are PST for temperature in C)
2007,03,01,00,00,-3.20
2007,03,01,00,01,-3.20
2007,03,01,00,02,-3.20
2007,03,01,00,03,-3.20
2007,03,01,00,04,-3.20
2007,03,01,00,05,-3.20
2007,03,01,00,06,-3.20
2007,03,01,00,07,-3.30
2007,03,01,00,08,-3.30
2007,03,01,00,09,-3.30
2007,03,01,00,10,-3.30
2007,03,01,00,11,-3.30
2007,03,01,00,12,-3.30
2007,03,01,00,13,-3.30
2007,03,01,00,14,-3.30
2007,03,01,00,15,-3.30
2007,03,01,00,16,-3.30
2007,03,01,00,17,-3.30
2007,03,01,00,18,-3.30
2007,03,01,00,19,-3.30
2007,03,01,00,20,-3.30
2007,03,01,00,21,-3.30
2007,03,01,00,22,-3.30
2007,03,01,00,23,-3.30
2007,03,01,00,24,-3.30
2007,03,01,00,25,-3.30
2007,03,01,00,26,-3.30
2007,03,01,00,27,-3.30
2007,03,01,00,28,-3.30
2007,03,01,00,29,-3.30
2007,03,01,00,30,-3.30
2007,03,01,00,31,-3.30
2007,03,01,00,32,-3.30
2007,03,01,00,33,-3.30
2007,03,01,00,34,-3.30
2007,03,01,00,35,-3.30
2007,03,01,00,36,-3.30
2007,03,01,00,37,-3.20
2007,03,01,00,38,-3.20
2007,03,01,00,39,-3.20
2007,03,01,00,40,-3.20
2007,03,01,00,41,-3.20
2007,03,01,00,42,-3.20
2007,03,01,00,43,-3.30
2007,03,01,00,44,-3.30
2007,03,01,00,45,-3.30
2007,03,01,00,46,-3.30
2007,03,01,00,47,-3.30
2007,03,01,00,48,-3.30
2007,03,01,00,49,-3.30
2007,03,01,00,50,-3.30
2007,03,01,00,51,-3.30
2007,03,01,00,52,-3.30
2007,03,01,00,53,-3.30
2007,03,01,00,54,-3.30
2007,03,01,00,55,-3.30
2007,03,01,00,56,-3.30
2007,03,01,00,57,-3.30
2007,03,01,00,58,-3.30
2007,03,01,00,59,-3.30
2007,03,01,01,00,-3.30
2007,03,01,01,01,-3.30
2007,03,01,01,02,-3.40
2007,03,01,01,03,-3.40
2007,03,01,01,04,-3.40
2007,03,01,01,05,-3.40
2007,03,01,01,06,-3.50
2007,03,01,01,07,-3.50
2007,03,01,01,08,-3.50
2007,03,01,01,09,-3.50
2007,03,01,01,10,-3.50
2007,03,01,01,11,-3.50
2007,03,01,01,12,-3.50
2007,03,01,01,13,-3.50
2007,03,01,01,14,-3.60
2007,03,01,01,15,-3.60
2007,03,01,01,16,-3.60
2007,03,01,01,17,-3.60
2007,03,01,01,18,-3.60
2007,03,01,01,19,-3.60
2007,03,01,01,20,-3.60
2007,03,01,01,21,-3.60
2007,03,01,01,22,-3.60
2007,03,01,01,23,-3.60
2007,03,01,01,24,-3.60
2007,03,01,01,25,-3.60
2007,03,01,01,26,-3.60
2007,03,01,01,27,-3.60
2007,03,01,01,28,-3.60
2007,03,01,01,29,-3.60
2007,03,01,01,30,-3.70
2007,03,01,01,31,-3.70
2007,03,01,01,32,-3.70
2007,03,01,01,33,-3.70
2007,03,01,01,34,-3.70
2007,03,01,01,35,-3.70
2007,03,01,01,36,-3.70
2007,03,01,01,37,-3.70
2007,03,01,01,38,-3.70
2007,03,01,01,39,-3.70
2007,03,01,01,40,-3.70
2007,03,01,01,41,-3.70
2007,03,01,01,42,-3.70
2007,03,01,01,43,-3.70
2007,03,01,01,44,-3.70
2007,03,01,01,45,-3.70
2007,03,01,01,46,-3.70
2007,03,01,01,47,-3.70
2007,03,01,01,48,-3.70
2007,03,01,01,49,-3.70
2007,03,01,01,50,-3.70
2007,03,01,01,51,-3.70
2007,03,01,01,52,-3.70
2007,03,01,01,53,-3.70
2007,03,01,01,54,-3.70
2007,03,01,01,55,-3.70
2007,03,01,01,56,-3.70
2007,03,01,01,57,-3.70
2007,03,01,01,58,-3.70
2007,03,01,01,59,-3.70
2007,03,01,02,00,-3.70
2007,03,01,02,01,-3.70
2007,03,01,02,02,-3.70
2007,03,01,02,03,-3.80
2007,03,01,02,04,-3.80
2007,03,01,02,05,-3.80
2007,03,01,02,06,-3.80
2007,03,01,02,07,-3.80
2007,03,01,02,08,-3.80
2007,03,01,02,09,-3.80
2007,03,01,02,10,-3.80
2007,03,01,02,11,-3.80
2007,03,01,02,12,-3.80
2007,03,01,02,13,-3.90
2007,03,01,02,14,-3.90
2007,03,01,02,15,-3.90
2007,03,01,02,16,-3.90
2007,03,01,02,17,-3.90
2007,03,01,02,18,-4.00
2007,03,01,02,19,-4.00
2007,03,01,02,20,-4.00
2007,03,01,02,21,-4.00
2007,03,01,02,22,-4.00
2007,03,01,02,23,-4.00
2007,03,01,02,24,-4.10
2007,03,01,02,25,-4.10
2007,03,01,02,26,-4.10
2007,03,01,02,27,-4.10
2007,03,01,02,28,-4.10
2007,03,01,02,29,-4.10
2007,03,01,02,30,-4.20
2007,03,01,02,31,-4.20
2007,03,01,02,32,-4.20
2007,03,01,02,33,-4.20
2007,03,01,02,34,-4.20
2007,03,01,02,35,-4.20
2007,03,01,02,36,-4.20
2007,03,01,02,37,-4.20
2007,03,01,02,38,-4.20
2007,03,01,02,39,-4.20
2007,03,01,02,40,-4.20
2007,03,01,02,41,-4.20
2007,03,01,02,42,-4.20
2007,03,01,02,43,-4.20
2007,03,01,02,44,-4.20
2007,03,01,02,45,-4.20
2007,03,01,02,46,-4.20
2007,03,01,02,47,-4.20
2007,03,01,02,48,-4.20
2007,03,01,02,49,-4.20
2007,03,01,02,50,-4.20
2007,03,01,02,51,-4.20
2007,03,01,02,52,-4.20
2007,03,01,02,53,-4.20
2007,03,01,02,54,-4.30
2007,03,01,02,55,-4.30
2007,03,01,02,56,-4.30
2007,03,01,02,57,-4.30
2007,03,01,02,58,-4.30
2007,03,01,02,59,-4.30
2007,03,01,03,00,-4.30
2007,03,01,03,01,-4.30
2007,03,01,03,02,-4.30
2007,03,01,03,03,-4.40
2007,03,01,03,04,-4.40
2007,03,01,03,05,-4.40
2007,03,01,03,06,-4.40
2007,03,01,03,07,-4.40
2007,03,01,03,08,-4.40
2007,03,01,03,09,-4.50
2007,03,01,03,10,-4.50
2007,03,01,03,11,-4.50
2007,03,01,03,12,-4.50
2007,03,01,03,13,-4.50
2007,03,01,03,14,-4.40
2007,03,01,03,15,-4.40
2007,03,01,03,16,-4.40
2007,03,01,03,17,-4.40
2007,03,01,03,18,-4.40
2007,03,01,03,19,-4.40
2007,03,01,03,20,-4.40
2007,03,01,03,21,-4.40
2007,03,01,03,22,-4.40
2007,03,01,03,23,-4.40
2007,03,01,03,24,-4.40
2007,03,01,03,25,-4.30
2007,03,01,03,26,-4.30
2007,03,01,03,27,-4.30
2007,03,01,03,28,-4.30
2007,03,01,03,29,-4.30
2007,03,01,03,30,-4.30
2007,03,01,03,31,-4.30
2007,03,01,03,32,-4.30
2007,03,01,03,33,-4.30
2007,03,01,03,34,-4.30
2007,03,01,03,35,-4.30
2007,03,01,03,36,-4.30
2007,03,01,03,37,-4.30
2007,03,01,03,38,-4.30
2007,03,01,03,39,-4.30
2007,03,01,03,40,-4.30
2007,03,01,03,41,-4.30
2007,03,01,03,42,-4.30
2007,03,01,03,43,-4.30
2007,03,01,03,44,-4.30
2007,03,01,03,45,-4.30
2007,03,01,03,46,-4.30
2007,03,01,03,47,-4.30
2007,03,01,03,48,-4.30
2007,03,01,03,49,-4.30
2007,03,01,03,50,-4.30
2007,03,01,03,51,-4.30
2007,03,01,03,52,-4.40
2007,03,01,03,53,-4.40
2007,03,01,03,54,-4.40
2007,03,01,03,55,-4.40
2007,03,01,03,56,-4.40
2007,03,01,03,57,-4.40
2007,03,01,03,58,-4.40
2007,03,01,03,59,-4.40
2007,03,01,04,00,-4.40
2007,03,01,04,01,-4.40
2007,03,01,04,02,-4.40
2007,03,01,04,03,-4.40
2007,03,01,04,04,-4.40
2007,03,01,04,05,-4.40
2007,03,01,04,06,-4.40
2007,03,01,04,07,-4.40
2007,03,01,04,08,-4.40
2007,03,01,04,09,-4.40
2007,03,01,04,10,-4.40
2007,03,01,04,11,-4.40
2007,03,01,04,12,-4.40
2007,03,01,04,13,-4.40
2007,03,01,04,14,-4.40
2007,03,01,04,15,-4.40
2007,03,01,04,16,-4.40
2007,03,01,04,17,-4.40
2007,03,01,04,18,-4.30
2007,03,01,04,19,-4.30
2007,03,01,04,20,-4.30
2007,03,01,04,21,-4.30
2007,03,01,04,22,-4.30
2007,03,01,04,23,-4.20
2007,03,01,04,24,-4.20
2007,03,01,04,25,-4.20
2007,03,01,04,26,-4.20
2007,03,01,04,27,-4.20
2007,03,01,04,28,-4.20
2007,03,01,04,29,-4.20
2007,03,01,04,30,-4.10
2007,03,01,04,31,-4.10
2007,03,01,04,32,-4.10
2007,03,01,04,33,-4.10
2007,03,01,04,34,-4.10
2007,03,01,04,35,-4.00
2007,03,01,04,36,-4.00
2007,03,01,04,37,-4.00
2007,03,01,04,38,-4.00
2007,03,01,04,39,-4.00
2007,03,01,04,40,-4.00
2007,03,01,04,41,-3.90
2007,03,01,04,42,-3.90
2007,03,01,04,43,-3.90
2007,03,01,04,44,-3.90
2007,03,01,04,45,-3.90
2007,03,01,04,46,-3.90
2007,03,01,04,47,-3.90
2007,03,01,04,48,-3.90
2007,03,01,04,49,-3.90
2007,03,01,04,50,-3.90
2007,03,01,04,51,-3.90
2007,03,01,04,52,-3.90
2007,03,01,04,53,-4.00
2007,03,01,04,54,-4.00
2007,03,01,04,55,-4.00
2007,03,01,04,56,-4.10
2007,03,01,04,57,-4.10
2007,03,01,04,58,-4.10
2007,03,01,04,59,-4.20
2007,03,01,05,00,-4.20
2007,03,01,05,01,-4.20
2007,03,01,05,02,-4.20
2007,03,01,05,03,-4.20
2007,03,01,05,04,-4.20
2007,03,01,05,05,-4.30
2007,03,01,05,06,-4.30
2007,03,01,05,07,-4.30
2007,03,01,05,08,-4.30
2007,03,01,05,09,-4.40
2007,03,01,05,10,-4.40
2007,03,01,05,11,-4.40
2007,03,01,05,12,-4.40
2007,03,01,05,13,-4.40
2007,03,01,05,14,-4.40
2007,03,01,05,15,-4.50
2007,03,01,05,16,-4.50
2007,03,01,05,17,-4.50
2007,03,01,05,18,-4.50
2007,03,01,05,19,-4.50
2007,03,01,05,20,-4.50
2007,03,01,05,21,-4.50
2007,03,01,05,22,-4.50
2007,03,01,05,23,-4.50
2007,03,01,05,24,-4.60
2007,03,01,05,25,-4.60
2007,03,01,05,26,-4.60
2007,03,01,05,27,-4.60
2007,03,01,05,28,-4.60
2007,03,01,05,29,-4.60
2007,03,01,05,30,-4.60
2007,03,01,05,31,-4.60
2007,03,01,05,32,-4.60
2007,03,01,05,33,-4.60
2007,03,01,05,34,-4.60
2007,03,01,05,35,-4.60
2007,03,01,05,36,-4.60
2007,03,01,05,37,-4.60
2007,03,01,05,38,-4.60
2007,03,01,05,39,-4.60
2007,03,01,05,40,-4.60
2007,03,01,05,41,-4.60
2007,03,01,05,42,-4.60
2007,03,01,05,43,-4.60
2007,03,01,05,44,-4.60
2007,03,01,05,45,-4.60
2007,03,01,05,46,-4.50
2007,03,01,05,47,-4.50
2007,03,01,05,48,-4.50
2007,03,01,05,49,-4.50
2007,03,01,05,50,-4.50
2007,03,01,05,51,-4.50
2007,03,01,05,52,-4.50
2007,03,01,05,53,-4.50
2007,03,01,05,54,-4.50
2007,03,01,05,55,-4.50
2007,03,01,05,56,-4.50
2007,03,01,05,57,-4.50
2007,03,01,05,58,-4.50
2007,03,01,05,59,-4.50
2007,03,01,06,00,-4.50
2007,03,01,06,01,-4.50
2007,03,01,06,02,-4.50
2007,03,01,06,03,-4.50
2007,03,01,06,04,-4.50
2007,03,01,06,05,-4.50
2007,03,01,06,06,-4.60
2007,03,01,06,07,-4.60
2007,03,01,06,08,-4.60
2007,03,01,06,09,-4.60
2007,03,01,06,10,-4.60
2007,03,01,06,11,-4.70
2007,03,01,06,12,-4.70
2007,03,01,06,13,-4.70
2007,03,01,06,14,-4.70
2007,03,01,06,15,-4.70
2007,03,01,06,16,-4.70
2007,03,01,06,17,-4.80
2007,03,01,06,18,-4.80
2007,03,01,06,19,-4.80
2007,03,01,06,20,-4.80
2007,03,01,06,21,-4.80
2007,03,01,06,22,-4.80
2007,03,01,06,23,-4.90
2007,03,01,06,24,-4.90
2007,03,01,06,25,-4.90
2007,03,01,06,26,-4.90
2007,03,01,06,27,-4.90
2007,03,01,06,28,-4.90
2007,03,01,06,29,-4.90
2007,03,01,06,30,-4.90
2007,03,01,06,31,-4.90
2007,03,01,06,32,-4.90
2007,03,01,06,33,-4.90
2007,03,01,06,34,-4.90
2007,03,01,06,35,-4.90
2007,03,01,06,36,-4.90
2007,03,01,06,37,-4.90
2007,03,01,06,38,-4.90
2007,03,01,06,39,-4.90
2007,03,01,06,40,-4.90
2007,03,01,06,41,-4.90
2007,03,01,06,42,-4.90
2007,03,01,06,43,-4.90
2007,03,01,06,44,-4.90
2007,03,01,06,45,-4.90
2007,03,01,06,46,-4.90
2007,03,01,06,47,-4.90
2007,03,01,06,48,-4.90
2007,03,01,06,49,-4.90
2007,03,01,06,50,-4.90
2007,03,01,06,51,-4.90
2007,03,01,06,52,-4.90
2007,03,01,06,53,-4.90
2007,03,01,06,54,-4.90
2007,03,01,06,55,-4.90
2007,03,01,06,56,-4.90
2007,03,01,06,57,-4.90
2007,03,01,06,58,-4.90
2007,03,01,06,59,-4.90
2007,03,01,07,00,-4.90
2007,03,01,07,01,-4.90
2007,03,01,07,02,-4.90
2007,03,01,07,03,-4.90
2007,03,01,07,04,-4.90
2007,03,01,07,05,-4.90
2007,03,01,07,06,-4.90
2007,03,01,07,07,-4.90
2007,03,01,07,08,-4.90
2007,03,01,07,09,-4.90
2007,03,01,07,10,-4.90
2007,03,01,07,11,-4.90
2007,03,01,07,12,-4.90
2007,03,01,07,13,-4.90
2007,03,01,07,14,-4.90
2007,03,01,07,15,-4.90
2007,03,01,07,16,-4.90
2007,03,01,07,17,-4.90
2007,03,01,07,18,-4.90
2007,03,01,07,19,-4.90
2007,03,01,07,20,-4.90
2007,03,01,07,21,-5.00
2007,03,01,07,22,-5.00
2007,03,01,07,23,-5.00
2007,03,01,07,24,-5.00
2007,03,01,07,25,-5.00
2007,03,01,07,26,-5.00
2007,03,01,07,27,-5.00
2007,03,01,07,28,-5.00
2007,03,01,07,29,-5.00
2007,03,01,07,30,-5.00
2007,03,01,07,31,-5.00
2007,03,01,07,32,-5.00
2007,03,01,07,33,-5.00
2007,03,01,07,34,-5.00
2007,03,01,07,35,-5.00
2007,03,01,07,36,-5.00
2007,03,01,07,37,-5.00
2007,03,01,07,38,-5.00
2007,03,01,07,39,-5.00
2007,03,01,07,40,-5.00
2007,03,01,07,41,-5.00
2007,03,01,07,42,-4.90
2007,03,01,07,43,-4.90
2007,03,01,07,44,-4.90
2007,03,01,07,45,-4.90
2007,03,01,07,46,-4.90
2007,03,01,07,47,-4.90
2007,03,01,07,48,-4.90
2007,03,01,07,49,-4.90
2007,03,01,07,50,-4.90
2007,03,01,07,51,-4.90
2007,03,01,07,52,-4.90
2007,03,01,07,53,-4.90
2007,03,01,07,54,-4.80
2007,03,01,07,55,-4.80
2007,03,01,07,56,-4.80
2007,03,01,07,57,-4.80
2007,03,01,07,58,-4.70
2007,03,01,07,59,-4.70
2007,03,01,08,00,-4.70
2007,03,01,08,01,-4.70
2007,03,01,08,02,-4.70
2007,03,01,08,03,-4.70
2007,03,01,08,04,-4.70
2007,03,01,08,05,-4.70
2007,03,01,08,06,-4.70
2007,03,01,08,07,-4.70
2007,03,01,08,08,-4.60
2007,03,01,08,09,-4.60
2007,03,01,08,10,-4.60
2007,03,01,08,11,-4.50
2007,03,01,08,12,-4.50
2007,03,01,08,13,-4.50
2007,03,01,08,14,-4.40
2007,03,01,08,15,-4.40
2007,03,01,08,16,-4.40
2007,03,01,08,17,-4.30
2007,03,01,08,18,-4.30
2007,03,01,08,19,-4.30
2007,03,01,08,20,-4.30
2007,03,01,08,21,-4.20
2007,03,01,08,22,-4.20
2007,03,01,08,23,-4.20
2007,03,01,08,24,-4.20
2007,03,01,08,25,-4.20
2007,03,01,08,26,-4.20
2007,03,01,08,27,-4.10
2007,03,01,08,28,-4.10
2007,03,01,08,29,-4.10
2007,03,01,08,30,-4.00
2007,03,01,08,31,-4.00
2007,03,01,08,32,-4.00
2007,03,01,08,33,-3.90
2007,03,01,08,34,-3.90
2007,03,01,08,35,-3.80
2007,03,01,08,36,-3.80
2007,03,01,08,37,-3.70
2007,03,01,08,38,-3.70
2007,03,01,08,39,-3.70
2007,03,01,08,40,-3.70
2007,03,01,08,41,-3.60
2007,03,01,08,42,-3.60
2007,03,01,08,43,-3.50
2007,03,01,08,44,-3.50
2007,03,01,08,45,-3.40
2007,03,01,08,46,-3.30
2007,03,01,08,47,-3.20
2007,03,01,08,48,-3.10
2007,03,01,08,49,-3.00
2007,03,01,08,50,-2.90
2007,03,01,08,51,-2.70
2007,03,01,08,52,-2.60
2007,03,01,08,53,-2.40
2007,03,01,08,54,-2.30
2007,03,01,08,55,-2.20
2007,03,01,08,56,-2.10
2007,03,01,08,57,-2.00
2007,03,01,08,58,-2.00
2007,03,01,08,59,-1.80
2007,03,01,09,00,-1.80
2007,03,01,09,01,-1.60
2007,03,01,09,02,-1.50
2007,03,01,09,03,-1.40
2007,03,01,09,04,-1.30
2007,03,01,09,05,-1.10
2007,03,01,09,06,-1.00
2007,03,01,09,07,-0.80
2007,03,01,09,08,-0.70
2007,03,01,09,09,-0.50
2007,03,01,09,10,-0.40
2007,03,01,09,11,-0.30
2007,03,01,09,12,-0.20
2007,03,01,09,13,-0.10
2007,03,01,09,14,-0.10
2007,03,01,09,15,-0.10
2007,03,01,09,16,0.10
2007,03,01,09,17,0.10
2007,03,01,09,18,0.10
2007,03,01,09,19,0.20
2007,03,01,09,20,0.30
2007,03,01,09,21,0.40
2007,03,01,09,22,0.40
2007,03,01,09,23,0.50
2007,03,01,09,24,0.60
2007,03,01,09,25,0.70
2007,03,01,09,26,0.80
2007,03,01,09,27,0.80
2007,03,01,09,28,0.80
2007,03,01,09,29,0.80
2007,03,01,09,30,0.90
2007,03,01,09,31,0.90
2007,03,01,09,32,0.90
2007,03,01,09,33,0.90
2007,03,01,09,34,0.80
2007,03,01,09,35,0.90
2007,03,01,09,36,0.90
2007,03,01,09,37,0.90
2007,03,01,09,38,0.90
2007,03,01,09,39,0.80
2007,03,01,09,40,0.80
2007,03,01,09,41,0.80
2007,03,01,09,42,0.90
2007,03,01,09,43,0.90
2007,03,01,09,44,0.90
2007,03,01,09,45,1.00
2007,03,01,09,46,1.00
2007,03,01,09,47,1.00
2007,03,01,09,48,1.00
2007,03,01,09,49,1.00
2007,03,01,09,50,1.00
2007,03,01,09,51,1.00
2007,03,01,09,52,1.00
2007,03,01,09,53,0.90
2007,03,01,09,54,0.90
2007,03,01,09,55,0.90
2007,03,01,09,56,0.90
2007,03,01,09,57,0.90
2007,03,01,09,58,0.90
2007,03,01,09,59,0.90
2007,03,01,10,00,0.90
2007,03,01,10,01,0.90
2007,03,01,10,02,0.90
2007,03,01,10,03,1.00
2007,03,01,10,04,1.00
2007,03,01,10,05,1.00
2007,03,01,10,06,1.00
2007,03,01,10,07,1.00
2007,03,01,10,08,1.00
2007,03,01,10,09,0.90
2007,03,01,10,10,0.90
2007,03,01,10,11,0.90
2007,03,01,10,12,0.90
2007,03,01,10,13,0.90
2007,03,01,10,14,1.00
2007,03,01,10,15,1.10
2007,03,01,10,16,1.10
2007,03,01,10,17,1.20
2007,03,01,10,18,1.30
2007,03,01,10,19,1.30
2007,03,01,10,20,1.30
2007,03,01,10,21,1.40
2007,03,01,10,22,1.40
2007,03,01,10,23,1.40
2007,03,01,10,24,1.40
2007,03,01,10,25,1.40
2007,03,01,10,26,1.40
2007,03,01,10,27,1.30
2007,03,01,10,28,1.30
2007,03,01,10,29,1.20
2007,03,01,10,30,1.20
2007,03,01,10,31,1.20
2007,03,01,10,32,1.10
2007,03,01,10,33,1.10
2007,03,01,10,34,1.00
2007,03,01,10,35,1.00
2007,03,01,10,36,0.90
2007,03,01,10,37,0.90
2007,03,01,10,38,0.80
2007,03,01,10,39,0.80
2007,03,01,10,40,0.80
2007,03,01,10,41,0.80
2007,03,01,10,42,0.80
2007,03,01,10,43,0.80
2007,03,01,10,44,0.80
2007,03,01,10,45,0.80
2007,03,01,10,46,0.80
2007,03,01,10,47,0.70
2007,03,01,10,48,0.70
2007,03,01,10,49,0.70
2007,03,01,10,50,0.70
2007,03,01,10,51,0.70
2007,03,01,10,52,0.70
2007,03,01,10,53,0.70
2007,03,01,10,54,0.70
2007,03,01,10,55,0.70
2007,03,01,10,56,0.60
2007,03,01,10,57,0.60
2007,03,01,10,58,0.60
2007,03,01,10,59,0.60
2007,03,01,11,00,0.60
2007,03,01,11,01,0.60
2007,03,01,11,02,0.60
2007,03,01,11,03,0.60
2007,03,01,11,04,0.70
2007,03,01,11,05,0.70
2007,03,01,11,06,0.80
2007,03,01,11,07,0.90
2007,03,01,11,08,1.00
2007,03,01,11,09,1.10
2007,03,01,11,10,1.10
2007,03,01,11,11,1.20
2007,03,01,11,12,1.20
2007,03,01,11,13,1.30
2007,03,01,11,14,1.40
2007,03,01,11,15,1.50
2007,03,01,11,16,1.60
2007,03,01,11,17,1.60
2007,03,01,11,18,1.70
2007,03,01,11,19,1.80
2007,03,01,11,20,1.90
2007,03,01,11,21,1.90
2007,03,01,11,22,2.00
2007,03,01,11,23,2.00
2007,03,01,11,24,2.10
2007,03,01,11,25,2.20
2007,03,01,11,26,2.20
2007,03,01,11,27,2.30
2007,03,01,11,28,2.30
2007,03,01,11,29,2.30
2007,03,01,11,30,2.30
2007,03,01,11,31,2.20
2007,03,01,11,32,2.20
2007,03,01,11,33,2.20
2007,03,01,11,34,2.20
2007,03,01,11,35,2.20
2007,03,01,11,36,2.20
2007,03,01,11,37,2.20
2007,03,01,11,38,2.10
2007,03,01,11,39,2.10
2007,03,01,11,40,2.10
2007,03,01,11,41,2.10
2007,03,01,11,42,2.00
2007,03,01,11,43,2.00
2007,03,01,11,44,2.00
2007,03,01,11,45,2.00
2007,03,01,11,46,2.10
2007,03,01,11,47,2.10
2007,03,01,11,48,2.20
2007,03,01,11,49,2.20
2007,03,01,11,50,2.10
2007,03,01,11,51,2.10
2007,03,01,11,52,2.10
2007,03,01,11,53,2.00
2007,03,01,11,54,2.00
2007,03,01,11,55,2.00
2007,03,01,11,56,2.10
2007,03,01,11,57,2.10
2007,03,01,11,58,2.20
2007,03,01,11,59,2.20
2007,03,01,12,00,2.30
2007,03,01,12,01,2.40
2007,03,01,12,02,2.50
2007,03,01,12,03,2.50
2007,03,01,12,04,2.60
2007,03,01,12,05,2.50
2007,03,01,12,06,2.60
2007,03,01,12,07,2.60
2007,03,01,12,08,2.70
2007,03,01,12,09,2.70
2007,03,01,12,10,2.70
2007,03,01,12,11,2.80
2007,03,01,12,12,2.80
2007,03,01,12,13,2.70
2007,03,01,12,14,2.70
2007,03,01,12,15,2.70
2007,03,01,12,16,2.70
2007,03,01,12,17,2.80
2007,03,01,12,18,2.90
2007,03,01,12,19,3.00
2007,03,01,12,20,3.10
2007,03,01,12,21,3.20
2007,03,01,12,22,3.20
2007,03,01,12,23,3.20
2007,03,01,12,24,3.20
2007,03,01,12,25,3.30
2007,03,01,12,26,3.30
2007,03,01,12,27,3.50
2007,03,01,12,28,3.50
2007,03,01,12,29,3.60
2007,03,01,12,30,3.60
2007,03,01,12,31,3.50
2007,03,01,12,32,3.40
2007,03,01,12,33,3.30
2007,03,01,12,34,3.20
2007,03,01,12,35,3.10
2007,03,01,12,36,3.10
2007,03,01,12,37,2.90
2007,03,01,12,38,2.70
2007,03,01,12,39,2.60
2007,03,01,12,40,2.50
2007,03,01,12,41,2.50
2007,03,01,12,42,2.40
2007,03,01,12,43,2.30
2007,03,01,12,44,2.20
2007,03,01,12,45,2.10
2007,03,01,12,46,2.10
2007,03,01,12,47,2.00
2007,03,01,12,48,1.90
2007,03,01,12,49,1.90
2007,03,01,12,50,1.90
2007,03,01,12,51,1.90
2007,03,01,12,52,1.80
2007,03,01,12,53,1.80
2007,03,01,12,54,1.80
2007,03,01,12,55,1.80
2007,03,01,12,56,1.80
2007,03,01,12,57,1.80
2007,03,01,12,58,1.80
2007,03,01,12,59,1.80
2007,03,01,13,00,1.80
2007,03,01,13,01,1.80
2007,03,01,13,02,1.80
2007,03,01,13,03,1.80
2007,03,01,13,04,1.80
2007,03,01,13,05,1.80
2007,03,01,13,06,1.80
2007,03,01,13,07,1.80
2007,03,01,13,08,1.80
2007,03,01,13,09,1.80
2007,03,01,13,10,1.80
2007,03,01,13,11,1.80
2007,03,01,13,12,1.80
2007,03,01,13,13,1.80
2007,03,01,13,14,1.80
2007,03,01,13,15,1.80
2007,03,01,13,16,1.80
2007,03,01,13,17,1.80
2007,03,01,13,18,1.80
2007,03,01,13,19,1.80
2007,03,01,13,20,1.80
2007,03,01,13,21,1.80
2007,03,01,13,22,1.80
2007,03,01,13,23,1.80
2007,03,01,13,24,1.80
2007,03,01,13,25,1.80
2007,03,01,13,26,1.80
2007,03,01,13,27,1.80
2007,03,01,13,28,1.80
2007,03,01,13,29,1.80
2007,03,01,13,30,1.80
2007,03,01,13,31,1.80
2007,03,01,13,32,1.80
2007,03,01,13,33,1.80
2007,03,01,13,34,1.80
2007,03,01,13,35,1.80
2007,03,01,13,36,1.80
2007,03,01,13,37,1.80
2007,03,01,13,38,1.80
2007,03,01,13,39,1.80
2007,03,01,13,40,1.80
2007,03,01,13,41,1.80
2007,03,01,13,42,1.70
2007,03,01,13,43,1.70
2007,03,01,13,44,1.80
2007,03,01,13,45,1.80
2007,03,01,13,46,1.80
2007,03,01,13,47,1.80
2007,03,01,13,48,1.80
2007,03,01,13,49,1.80
2007,03,01,13,50,1.80
2007,03,01,13,51,1.80
2007,03,01,13,52,1.80
2007,03,01,13,53,1.80
2007,03,01,13,54,1.80
2007,03,01,13,55,1.80
2007,03,01,13,56,1.80
2007,03,01,13,57,1.80
2007,03,01,13,58,1.80
2007,03,01,13,59,1.80
2007,03,01,14,00,1.80
2007,03,01,14,01,1.80
2007,03,01,14,02,1.80
2007,03,01,14,03,1.80
2007,03,01,14,04,1.80
2007,03,01,14,05,1.80
2007,03,01,14,06,1.80
2007,03,01,14,07,1.80
2007,03,01,14,08,1.80
2007,03,01,14,09,1.80
2007,03,01,14,10,1.80
2007,03,01,14,11,1.80
2007,03,01,14,12,1.80
2007,03,01,14,13,1.80
2007,03,01,14,14,1.80
2007,03,01,14,15,1.80
2007,03,01,14,16,1.80
2007,03,01,14,17,1.80
2007,03,01,14,18,1.90
2007,03,01,14,19,1.90
2007,03,01,14,20,1.90
2007,03,01,14,21,1.90
2007,03,01,14,22,1.90
2007,03,01,14,23,1.90
2007,03,01,14,24,1.90
2007,03,01,14,25,1.90
2007,03,01,14,26,1.90
2007,03,01,14,27,1.90
2007,03,01,14,28,1.90
2007,03,01,14,29,1.90
2007,03,01,14,30,1.90
2007,03,01,14,31,1.90
2007,03,01,14,32,1.90
2007,03,01,14,33,2.00
2007,03,01,14,34,2.00
2007,03,01,14,35,2.10
2007,03,01,14,36,2.10
2007,03,01,14,37,2.20
2007,03,01,14,38,2.20
2007,03,01,14,39,2.30
2007,03,01,14,40,2.30
2007,03,01,14,41,2.30
2007,03,01,14,42,2.30
2007,03,01,14,43,2.30
2007,03,01,14,44,2.30
2007,03,01,14,45,2.30
2007,03,01,14,46,2.30
2007,03,01,14,47,2.30
2007,03,01,14,48,2.40
2007,03,01,14,49,2.40
2007,03,01,14,50,2.40
2007,03,01,14,51,2.40
2007,03,01,14,52,2.40
2007,03,01,14,53,2.40
2007,03,01,14,54,2.50
2007,03,01,14,55,2.50
2007,03,01,14,56,2.50
2007,03,01,14,57,2.50
2007,03,01,14,58,2.50
2007,03,01,14,59,2.50
2007,03,01,15,00,2.50
2007,03,01,15,01,2.50
2007,03,01,15,02,2.50
2007,03,01,15,03,2.50
2007,03,01,15,04,2.50
2007,03,01,15,05,2.50
2007,03,01,15,06,2.50
2007,03,01,15,07,2.50
2007,03,01,15,08,2.50
2007,03,01,15,09,2.50
2007,03,01,15,10,2.50
2007,03,01,15,11,2.60
2007,03,01,15,12,2.60
2007,03,01,15,13,2.60
2007,03,01,15,14,2.60
2007,03,01,15,15,2.60
2007,03,01,15,16,2.60
2007,03,01,15,17,2.60
2007,03,01,15,18,2.60
2007,03,01,15,19,2.60
2007,03,01,15,20,2.60
2007,03,01,15,21,2.50
2007,03,01,15,22,2.50
2007,03,01,15,23,2.50
2007,03,01,15,24,2.50
2007,03,01,15,25,2.50
2007,03,01,15,26,2.50
2007,03,01,15,27,2.50
2007,03,01,15,28,2.50
2007,03,01,15,29,2.40
2007,03,01,15,30,2.40
2007,03,01,15,31,2.40
2007,03,01,15,32,2.30
2007,03,01,15,33,2.30
2007,03,01,15,34,2.30
2007,03,01,15,35,2.30
2007,03,01,15,36,2.30
2007,03,01,15,37,2.30
2007,03,01,15,38,2.30
2007,03,01,15,39,2.30
2007,03,01,15,40,2.30
2007,03,01,15,41,2.30
2007,03,01,15,42,2.30
2007,03,01,15,43,2.30
2007,03,01,15,44,2.30
2007,03,01,15,45,2.30
2007,03,01,15,46,2.30
2007,03,01,15,47,2.30
2007,03,01,15,48,2.30
2007,03,01,15,49,2.30
2007,03,01,15,50,2.30
2007,03,01,15,51,2.30
2007,03,01,15,52,2.30
2007,03,01,15,53,2.30
2007,03,01,15,54,2.40
2007,03,01,15,55,2.40
2007,03,01,15,56,2.40
2007,03,01,15,57,2.40
2007,03,01,15,58,2.40
2007,03,01,15,59,2.40
2007,03,01,16,00,2.50
2007,03,01,16,01,2.50
2007,03,01,16,02,2.50
2007,03,01,16,03,2.40
2007,03,01,16,04,2.40
2007,03,01,16,05,2.40
2007,03,01,16,06,2.40
2007,03,01,16,07,2.40
2007,03,01,16,08,2.40
2007,03,01,16,09,2.40
2007,03,01,16,10,2.40
2007,03,01,16,11,2.40
2007,03,01,16,12,2.40
2007,03,01,16,13,2.40
2007,03,01,16,14,2.40
2007,03,01,16,15,2.40
2007,03,01,16,16,2.50
2007,03,01,16,17,2.50
2007,03,01,16,18,2.50
2007,03,01,16,19,2.50
2007,03,01,16,20,2.50
2007,03,01,16,21,2.50
2007,03,01,16,22,2.50
2007,03,01,16,23,2.50
2007,03,01,16,24,2.50
2007,03,01,16,25,2.50
2007,03,01,16,26,2.50
2007,03,01,16,27,2.50
2007,03,01,16,28,2.50
2007,03,01,16,29,2.50
2007,03,01,16,30,2.50
2007,03,01,16,31,2.50
2007,03,01,16,32,2.50
2007,03,01,16,33,2.40
2007,03,01,16,34,2.40
2007,03,01,16,35,2.30
2007,03,01,16,36,2.30
2007,03,01,16,37,2.30
2007,03,01,16,38,2.30
2007,03,01,16,39,2.30
2007,03,01,16,40,2.30
2007,03,01,16,41,2.30
2007,03,01,16,42,2.30
2007,03,01,16,43,2.20
2007,03,01,16,44,2.30
2007,03,01,16,45,2.20
2007,03,01,16,46,2.20
2007,03,01,16,47,2.20
2007,03,01,16,48,2.20
2007,03,01,16,49,2.20
2007,03,01,16,50,2.20
2007,03,01,16,51,2.10
2007,03,01,16,52,2.10
2007,03,01,16,53,2.10
2007,03,01,16,54,2.20
2007,03,01,16,55,2.20
2007,03,01,16,56,2.10
2007,03,01,16,57,2.10
2007,03,01,16,58,2.10
2007,03,01,16,59,2.10
2007,03,01,17,00,2.10
2007,03,01,17,01,2.10
2007,03,01,17,02,2.10
2007,03,01,17,03,2.10
2007,03,01,17,04,2.10
2007,03,01,17,05,2.10
2007,03,01,17,06,2.10
2007,03,01,17,07,2.10
2007,03,01,17,08,2.00
2007,03,01,17,09,2.00
2007,03,01,17,10,2.00
2007,03,01,17,11,2.00
2007,03,01,17,12,2.00
2007,03,01,17,13,2.00
2007,03,01,17,14,2.00
2007,03,01,17,15,2.00
2007,03,01,17,16,1.90
2007,03,01,17,17,1.90
2007,03,01,17,18,1.90
2007,03,01,17,19,1.90
2007,03,01,17,20,1.90
2007,03,01,17,21,1.90
2007,03,01,17,22,1.80
2007,03,01,17,23,1.80
2007,03,01,17,24,1.80
2007,03,01,17,25,1.80
2007,03,01,17,26,1.80
2007,03,01,17,27,1.80
2007,03,01,17,28,1.80
2007,03,01,17,29,1.80
2007,03,01,17,30,1.80
2007,03,01,17,31,1.70
2007,03,01,17,32,1.70
2007,03,01,17,33,1.70
2007,03,01,17,34,1.70
2007,03,01,17,35,1.60
2007,03,01,17,36,1.60
2007,03,01,17,37,1.60
2007,03,01,17,38,1.60
2007,03,01,17,39,1.60
2007,03,01,17,40,1.50
2007,03,01,17,41,1.50